GW3736 Weather Reports


time (UTC)temp
F
wind
direction
speed
knots
gust
knots
rain 1hr
in
rain 24hr
in
rain mn
in
humidity
%
barometer
mb
20260504050548 53 228 3.5 9.6 0.00 0.00 0.00 65 1004.0
20260504045544 53 191 3.5 7.8 0.00 0.00 0.00 65 1004.1
20260504044540 53 208 4.3 12.2 0.00 0.00 0.00 65 1004.1
20260504043516 53 192 4.3 12.2 0.00 0.00 0.00 65 1004.2
20260504042532 53 187 4.3 9.6 0.00 0.00 0.00 64 1004.3
20260504041528 53 202 2.6 9.6 0.00 0.00 0.00 63 1004.4
20260504040524 53 212 3.5 11.3 0.00 0.00 0.00 62 1004.4
20260504035520 54 198 3.5 7.8 0.00 0.00 0.00 60 1004.6
20260504034516 54 211 3.5 8.7 0.00 0.00 0.00 59 1004.5
20260504033532 54 194 4.3 9.6 0.00 0.00 0.00 59 1004.7
20260504032528 54 193 2.6 7.0 0.00 0.00 0.00 58 1004.9
20260504031543 54 224 3.5 8.7 0.00 0.00 0.00 57 1004.9
20260504030540 54 211 2.6 5.2 0.00 0.00 0.00 57 1005.0
20260504025556 55 200 2.6 7.8 0.00 0.00 0.00 57 1005.1
20260504024532 55 215 4.3 8.7 0.00 0.00 0.00 57 1005.3
20260504023548 55 216 3.5 8.7 0.00 0.00 0.00 56 1005.3
20260504022524 55 222 3.5 8.7 0.00 0.00 0.00 56 1005.3
20260504021520 55 212 4.3 12.2 0.00 0.00 0.00 55 1005.3
20260504020516 55 224 2.6 6.1 0.00 0.00 0.00 54 1005.3
20260504015532 56 234 4.3 13.0 0.00 0.00 0.00 54 1005.4
20260504014548 56 226 4.3 9.6 0.00 0.00 0.00 53 1005.3
20260504013523 57 237 5.2 9.6 0.00 0.00 0.00 52 1005.2
20260504012519 57 240 6.1 13.9 0.00 0.00 0.00 51 1005.2
20260504011535 58 239 6.1 9.6 0.00 0.00 0.00 51 1005.1
20260504010531 58 244 7.0 14.8 0.00 0.00 0.00 50 1005.2
20260504005527 59 258 8.7 18.2 0.00 0.00 0.00 49 1004.9
20260504004543 60 250 8.7 16.5 0.00 0.00 0.00 47 1004.8
20260504003519 60 238 7.0 16.5 0.00 0.00 0.00 45 1004.6
20260504002535 60 247 6.1 13.9 0.00 0.00 0.00 44 1004.4
20260504001531 60 249 6.1 16.5 0.00 0.00 0.00 44 1004.3
20260504000526 60 245 7.8 19.1 0.00 0.00 0.00 44 1004.3
20260503235522 61 251 7.0 13.9 0.00 0.00 0.00 43 1004.2
20260503234518 61 242 7.0 20.9 0.00 0.00 0.00 43 1004.3
20260503233534 61 243 5.2 11.3 0.00 0.00 0.00 43 1004.2
20260503232530 61 244 5.2 11.3 0.00 0.00 0.00 42 1004.4
20260503231526 62 241 4.3 14.8 0.00 0.00 0.00 41 1004.5
20260503230521 63 258 7.8 14.8 0.00 0.00 0.00 40 1004.3
20260503225518 63 247 7.8 15.6 0.00 0.00 0.00 39 1004.3
20260503224534 63 254 5.2 12.2 0.00 0.00 0.00 40 1004.6
20260503223530 63 237 8.7 15.6 0.00 0.00 0.00 40 1004.7
20260503222526 63 245 5.2 12.2 0.00 0.00 0.00 40 1004.9
20260503221601 63 242 7.0 16.5 0.00 0.00 0.00 40 1004.9
20260503220537 63 256 7.8 21.7 0.00 0.00 0.00 40 1004.8
20260503215553 63 238 7.0 13.9 0.00 0.00 0.00 40 1004.9
20260503214529 63 261 9.6 19.1 0.00 0.00 0.00 39 1004.8
20260503213525 63 252 6.1 12.2 0.00 0.00 0.00 39 1004.8
20260503212521 63 246 7.8 14.8 0.00 0.00 0.00 39 1005.0
20260503211517 63 248 8.7 19.1 0.00 0.00 0.00 39 1004.8
20260503210552 63 240 6.1 16.5 0.00 0.00 0.00 39 1004.8
20260503205528 63 239 6.1 13.0 0.00 0.00 0.00 38 1004.9
20260503204524 63 225 7.0 15.6 0.00 0.00 0.00 38 1004.8
20260503203520 64 248 10.4 20.9 0.00 0.00 0.00 37 1005.1
20260503202516 64 239 7.0 15.6 0.00 0.00 0.00 36 1004.9
20260503201613 64 253 7.8 14.8 0.00 0.00 0.00 36 1005.1
20260503200548 64 252 9.6 20.0 0.00 0.00 0.00 36 1005.1
20260503195544 64 252 7.0 20.9 0.00 0.00 0.00 36 1005.3
20260503194540 64 237 9.6 21.7 0.00 0.00 0.00 36 1005.5
20260503193516 64 248 7.8 18.2 0.00 0.00 0.00 36 1005.6
20260503192532 65 253 7.0 13.0 0.00 0.00 0.00 37 1005.8
20260503191548 64 245 8.7 18.2 0.00 0.00 0.00 36 1005.9
20260503190524 65 223 7.0 13.9 0.00 0.00 0.00 37 1006.1
20260503185520 65 238 7.0 15.6 0.00 0.00 0.00 37 1006.2
20260503184516 64 246 8.7 20.9 0.00 0.00 0.00 38 1006.4
20260503183532 62 257 8.7 18.2 0.00 0.00 0.00 37 1006.6
20260503182528 63 253 8.7 16.5 0.00 0.00 0.00 36 1006.7
20260503181524 64 256 8.7 16.5 0.00 0.00 0.00 37 1006.9
20260503180520 63 242 6.1 13.9 0.00 0.00 0.00 38 1006.9
20260503175516 63 266 9.6 22.6 0.00 0.00 0.00 36 1007.1
20260503174532 63 251 9.6 22.6 0.00 0.00 0.00 38 1007.2
20260503173528 62 255 7.0 13.0 0.00 0.00 0.00 38 1007.3
20260503172524 62 254 7.0 14.8 0.00 0.00 0.00 38 1007.4
20260503171520 62 259 7.0 13.9 0.00 0.00 0.00 37 1007.5
20260503170516 62 273 8.7 15.6 0.00 0.00 0.00 38 1007.6
20260503150549 59 274 7.0 14.8 0.00 0.00 0.00 39 1008.5
20260503130521 47 254 7.0 16.5 0.00 0.00 0.00 52 1009.1
20260503110534 39 245 3.5 7.8 0.00 0.00 0.00 61 1009.6
20260503081546 40 255 3.5 6.1 0.00 0.00 0.00 61 1010.5
20260503080522 40 254 3.5 7.0 0.00 0.00 0.00 61 1010.6
20260503072526 40 253 2.6 6.1 0.00 0.00 0.00 61 1010.5
20260503071522 40 253 3.5 6.1 0.00 0.00 0.00 61 1010.6
20260503070518 40 254 2.6 5.2 0.00 0.00 0.00 61 1010.5